Time,TemperatureF,DewpointF,PressureIn,WindDirection,WindDirectionDegrees,WindSpeedMPH,WindSpeedGustMPH,Humidity,HourlyPrecipIn,Conditions,Clouds,dailyrainin,SolarRadiationWatts/m^2,SoftwareType,DateUTC
2013-02-25 00:01:00,61.0,59.0,-100.00,NNE,12,0.0,0.0,92,0.00,,,0.71,0.000000,,2013-02-25 00:01:00,
2013-02-25 00:11:00,61.0,59.0,-100.00,NNE,12,0.0,0.0,92,0.00,,,0.71,0.000000,,2013-02-25 00:11:00,
2013-02-25 00:21:00,61.0,59.0,-100.00,NNE,12,0.0,0.0,92,0.00,,,0.71,0.000000,,2013-02-25 00:21:00,
2013-02-25 00:31:00,61.0,59.0,-100.00,NNE,12,0.0,0.0,92,0.00,,,0.71,0.000000,,2013-02-25 00:31:00,
2013-02-25 01:01:00,61.0,60.0,-100.00,NNE,16,0.0,0.0,95,0.00,,,0.55,0.000000,,2013-02-25 01:01:00,
2013-02-25 01:11:00,61.0,60.0,-100.00,NNE,16,0.0,0.0,95,0.00,,,0.55,0.000000,,2013-02-25 01:11:00,
2013-02-25 01:21:00,61.0,60.0,-100.00,NNE,16,0.0,0.0,95,0.00,,,0.55,0.000000,,2013-02-25 01:21:00,
2013-02-25 01:31:00,61.0,60.0,-100.00,NNE,16,0.0,0.0,95,0.00,,,0.55,0.000000,,2013-02-25 01:31:00,
2013-02-25 02:01:00,61.0,59.0,-100.00,NNE,15,0.0,0.0,93,0.00,,,0.55,0.000000,,2013-02-25 02:01:00,
2013-02-25 02:11:00,61.0,59.0,-100.00,NNE,15,0.0,0.0,93,0.00,,,0.55,0.000000,,2013-02-25 02:11:00,
2013-02-25 02:21:00,61.0,59.0,-100.00,NNE,15,0.0,0.0,93,0.00,,,0.55,0.000000,,2013-02-25 02:21:00,
2013-02-25 02:31:00,61.0,59.0,-100.00,NNE,15,0.0,0.0,93,0.00,,,0.55,0.000000,,2013-02-25 02:31:00,
2013-02-25 03:01:00,60.0,59.0,-100.00,NNE,13,1.0,1.0,95,0.00,,,-99.99,0.000000,,2013-02-25 03:01:00,
2013-02-25 03:11:00,60.0,59.0,-100.00,NNE,13,1.0,1.0,95,0.00,,,-99.99,0.000000,,2013-02-25 03:11:00,
2013-02-25 03:21:00,60.0,59.0,-100.00,NNE,13,1.0,1.0,95,0.00,,,-99.99,0.000000,,2013-02-25 03:21:00,
2013-02-25 03:31:00,60.0,59.0,-100.00,NNE,13,1.0,1.0,95,0.00,,,-99.99,0.000000,,2013-02-25 03:31:00,
2013-02-25 04:01:00,60.0,59.0,-100.00,NNE,12,0.0,0.0,97,0.00,,,0.48,0.000000,,2013-02-25 04:01:00,
2013-02-25 04:11:00,60.0,59.0,-100.00,NNE,12,0.0,0.0,97,0.00,,,0.48,0.000000,,2013-02-25 04:11:00,
2013-02-25 04:21:00,60.0,59.0,-100.00,NNE,12,0.0,0.0,97,0.00,,,0.48,0.000000,,2013-02-25 04:21:00,
2013-02-25 04:31:00,60.0,59.0,-100.00,NNE,12,0.0,0.0,97,0.00,,,0.48,0.000000,,2013-02-25 04:31:00,
2013-02-25 05:01:00,60.0,59.0,-100.00,NNE,15,0.0,0.0,95,0.00,,,0.38,0.000000,,2013-02-25 05:01:00,
2013-02-25 05:11:00,60.0,59.0,-100.00,NNE,15,0.0,0.0,95,0.00,,,0.38,0.000000,,2013-02-25 05:11:00,
2013-02-25 05:22:00,60.0,59.0,-100.00,NNE,15,0.0,0.0,95,0.00,,,0.38,0.000000,,2013-02-25 05:22:00,
2013-02-25 05:31:00,60.0,59.0,-100.00,NNE,15,0.0,0.0,95,0.00,,,0.38,0.000000,,2013-02-25 05:31:00,
2013-02-25 06:02:00,60.0,59.0,-100.00,NNE,18,0.0,0.0,97,0.00,,,0.29,0.000000,,2013-02-25 06:02:00,
2013-02-25 06:11:00,60.0,59.0,-100.00,NNE,18,0.0,0.0,97,0.00,,,0.29,0.000000,,2013-02-25 06:11:00,
2013-02-25 06:21:00,60.0,59.0,-100.00,NNE,18,0.0,0.0,97,0.00,,,0.29,0.000000,,2013-02-25 06:21:00,
2013-02-25 06:31:00,60.0,59.0,-100.00,NNE,18,0.0,0.0,97,0.00,,,0.29,0.000000,,2013-02-25 06:31:00,
2013-02-25 07:01:00,60.0,59.0,-100.00,NNE,32,0.0,0.0,97,0.00,,,0.14,0.000000,,2013-02-25 07:01:00,
2013-02-25 07:11:00,60.0,59.0,-100.00,NNE,32,0.0,0.0,97,0.00,,,0.14,0.000000,,2013-02-25 07:11:00,
2013-02-25 07:21:00,60.0,59.0,-100.00,NNE,32,0.0,0.0,97,0.00,,,0.14,0.000000,,2013-02-25 07:21:00,
2013-02-25 07:31:00,60.0,59.0,-100.00,NNE,32,0.0,0.0,97,0.00,,,0.14,0.000000,,2013-02-25 07:31:00,
2013-02-25 07:52:00,60.0,59.0,-100.00,NNE,22,0.0,0.0,96,0.00,,,0.14,0.000000,,2013-02-25 07:52:00,
2013-02-25 08:01:00,60.0,59.0,-100.00,NNE,22,0.0,0.0,96,0.00,,,0.14,0.000000,,2013-02-25 08:01:00,
2013-02-25 08:11:00,60.0,59.0,-100.00,NNE,22,0.0,0.0,96,0.00,,,0.14,0.000000,,2013-02-25 08:11:00,
2013-02-25 08:21:00,60.0,59.0,-100.00,NNE,22,0.0,0.0,96,0.00,,,0.14,0.000000,,2013-02-25 08:21:00,
2013-02-25 08:31:00,60.0,59.0,-100.00,NNE,22,0.0,0.0,96,0.00,,,0.14,0.000000,,2013-02-25 08:31:00,
2013-02-25 08:52:00,60.0,58.0,-100.00,NNE,22,0.0,0.0,94,0.00,,,0.05,0.000000,,2013-02-25 08:52:00,
2013-02-25 09:01:00,60.0,58.0,-100.00,NNE,22,0.0,0.0,94,0.00,,,0.05,0.000000,,2013-02-25 09:01:00,
2013-02-25 09:12:00,60.0,58.0,-100.00,NNE,22,0.0,0.0,94,0.00,,,0.05,0.000000,,2013-02-25 09:12:00,
2013-02-25 09:21:00,60.0,58.0,-100.00,NNE,22,0.0,0.0,94,0.00,,,0.05,0.000000,,2013-02-25 09:21:00,
2013-02-25 09:31:00,60.0,58.0,-100.00,NNE,22,0.0,0.0,94,0.00,,,0.05,0.000000,,2013-02-25 09:31:00,
2013-02-25 10:01:00,60.0,59.0,-100.00,NNE,27,0.0,0.0,96,0.00,,,0.01,0.000000,,2013-02-25 10:01:00,
2013-02-25 10:11:00,60.0,59.0,-100.00,NNE,27,0.0,0.0,96,0.00,,,0.01,0.000000,,2013-02-25 10:11:00,
2013-02-25 10:21:00,60.0,59.0,-100.00,NNE,27,0.0,0.0,96,0.00,,,0.01,0.000000,,2013-02-25 10:21:00,
2013-02-25 10:31:00,60.0,59.0,-100.00,NNE,27,0.0,0.0,96,0.00,,,0.01,0.000000,,2013-02-25 10:31:00,
2013-02-25 11:01:00,60.0,59.0,-100.00,NNE,32,0.0,0.0,95,0.00,,,0.00,0.000000,,2013-02-25 11:01:00,
2013-02-25 11:11:00,60.0,59.0,-100.00,NNE,32,0.0,0.0,95,0.00,,,0.00,0.000000,,2013-02-25 11:11:00,
2013-02-25 11:21:00,60.0,59.0,-100.00,NNE,32,0.0,0.0,95,0.00,,,0.00,0.000000,,2013-02-25 11:21:00,
2013-02-25 11:31:00,60.0,59.0,-100.00,NNE,32,0.0,0.0,95,0.00,,,0.00,0.000000,,2013-02-25 11:31:00,
2013-02-25 11:52:00,60.0,58.0,-100.00,NNE,24,0.0,0.0,93,0.00,,,0.00,0.000000,,2013-02-25 11:52:00,
2013-02-25 12:01:00,60.0,58.0,-100.00,NNE,24,0.0,0.0,93,0.00,,,0.00,0.000000,,2013-02-25 12:01:00,
2013-02-25 12:11:00,60.0,58.0,-100.00,NNE,24,0.0,0.0,93,0.00,,,0.00,0.000000,,2013-02-25 12:11:00,
2013-02-25 12:21:00,60.0,58.0,-100.00,NNE,24,0.0,0.0,93,0.00,,,0.00,0.000000,,2013-02-25 12:21:00,
2013-02-25 12:32:00,60.0,58.0,-100.00,NNE,24,0.0,0.0,93,0.00,,,0.00,0.000000,,2013-02-25 12:32:00,
2013-02-25 13:02:00,60.0,59.0,-100.00,NNE,24,0.0,0.0,96,0.00,,,0.00,0.000000,,2013-02-25 13:02:00,
2013-02-25 13:12:00,60.0,59.0,-100.00,NNE,24,0.0,0.0,96,0.00,,,0.00,0.000000,,2013-02-25 13:12:00,
2013-02-25 13:22:00,60.0,59.0,-100.00,NNE,24,0.0,0.0,96,0.00,,,0.00,0.000000,,2013-02-25 13:22:00,
2013-02-25 13:31:00,60.0,59.0,-100.00,NNE,24,0.0,0.0,96,0.00,,,0.00,0.000000,,2013-02-25 13:31:00,
2013-02-25 13:52:00,59.0,58.0,-100.00,NNE,30,0.0,1.0,96,0.00,,,0.00,0.000000,,2013-02-25 13:52:00,
2013-02-25 14:02:00,59.0,58.0,-100.00,NNE,30,0.0,1.0,96,0.00,,,0.00,0.000000,,2013-02-25 14:02:00,
2013-02-25 14:15:00,59.0,58.0,-100.00,NNE,30,0.0,1.0,96,0.00,,,0.00,0.000000,,2013-02-25 14:15:00,
2013-02-25 14:21:00,59.0,58.0,-100.00,NNE,30,0.0,1.0,96,0.00,,,0.00,0.000000,,2013-02-25 14:21:00,
2013-02-25 14:31:00,59.0,58.0,-100.00,NNE,30,0.0,1.0,96,0.00,,,0.00,0.000000,,2013-02-25 14:31:00,
2013-02-25 15:02:00,59.0,58.0,-100.00,NE,39,0.0,0.0,96,0.00,,,0.00,0.000000,,2013-02-25 15:02:00,
2013-02-25 15:11:00,59.0,58.0,-100.00,NE,39,0.0,0.0,96,0.00,,,0.00,0.000000,,2013-02-25 15:11:00,
2013-02-25 15:21:00,59.0,58.0,-100.00,NE,39,0.0,0.0,96,0.00,,,0.00,0.000000,,2013-02-25 15:21:00,
2013-02-25 15:32:00,59.0,58.0,-100.00,NE,39,0.0,0.0,96,0.00,,,0.00,0.000000,,2013-02-25 15:32:00,
2013-02-25 16:01:00,59.0,58.0,-100.00,NNE,33,0.0,0.0,96,0.00,,,0.00,0.000000,,2013-02-25 16:01:00,
2013-02-25 16:11:00,59.0,58.0,-100.00,NNE,33,0.0,0.0,96,0.00,,,0.00,0.000000,,2013-02-25 16:11:00,
2013-02-25 16:21:00,59.0,58.0,-100.00,NNE,33,0.0,0.0,96,0.00,,,0.00,0.000000,,2013-02-25 16:21:00,
2013-02-25 16:31:00,59.0,58.0,-100.00,NNE,33,0.0,0.0,96,0.00,,,0.00,0.000000,,2013-02-25 16:31:00,
2013-02-25 17:01:00,59.0,57.0,-100.00,NE,41,0.0,1.0,94,0.00,,,0.00,0.000000,,2013-02-25 17:01:00,
2013-02-25 17:11:00,59.0,57.0,-100.00,NE,41,0.0,1.0,94,0.00,,,0.00,0.000000,,2013-02-25 17:11:00,
2013-02-25 17:21:00,59.0,57.0,-100.00,NE,41,0.0,1.0,94,0.00,,,0.00,0.000000,,2013-02-25 17:21:00,
2013-02-25 17:31:00,59.0,57.0,-100.00,NE,41,0.0,1.0,94,0.00,,,0.00,0.000000,,2013-02-25 17:31:00,
2013-02-25 18:01:00,59.0,57.0,-100.00,NNE,29,0.0,1.0,93,0.00,,,0.00,0.000000,,2013-02-25 18:01:00,
2013-02-25 18:12:00,59.0,57.0,-100.00,NNE,29,0.0,1.0,93,0.00,,,0.00,0.000000,,2013-02-25 18:12:00,
2013-02-25 18:21:00,59.0,57.0,-100.00,NNE,29,0.0,1.0,93,0.00,,,0.00,0.000000,,2013-02-25 18:21:00,
2013-02-25 18:32:00,59.0,57.0,-100.00,NNE,29,0.0,1.0,93,0.00,,,0.00,0.000000,,2013-02-25 18:32:00,
2013-02-25 19:01:00,60.0,58.0,-100.00,NE,36,0.0,0.0,92,0.00,,,0.00,0.000000,,2013-02-25 19:01:00,
2013-02-25 19:11:00,60.0,58.0,-100.00,NE,36,0.0,0.0,92,0.00,,,0.00,0.000000,,2013-02-25 19:11:00,
2013-02-25 19:21:00,60.0,58.0,-100.00,NE,36,0.0,0.0,92,0.00,,,0.00,0.000000,,2013-02-25 19:21:00,
2013-02-25 19:31:00,60.0,58.0,-100.00,NE,36,0.0,0.0,92,0.00,,,0.00,0.000000,,2013-02-25 19:31:00,
2013-02-25 20:01:00,60.0,58.0,-100.00,NE,40,0.0,0.0,92,0.00,,,0.00,0.000000,,2013-02-25 20:01:00,
2013-02-25 20:11:00,60.0,58.0,-100.00,NE,40,0.0,0.0,92,0.00,,,0.00,0.000000,,2013-02-25 20:11:00,
2013-02-25 20:21:00,60.0,58.0,-100.00,NE,40,0.0,0.0,92,0.00,,,0.00,0.000000,,2013-02-25 20:21:00,
2013-02-25 20:31:00,60.0,58.0,-100.00,NE,40,0.0,0.0,92,0.00,,,0.00,0.000000,,2013-02-25 20:31:00,
2013-02-25 21:01:00,61.0,59.0,-100.00,NNE,31,0.0,0.0,93,0.00,,,0.00,0.000000,,2013-02-25 21:01:00,
2013-02-25 21:11:00,61.0,59.0,-100.00,NNE,31,0.0,0.0,93,0.00,,,0.00,0.000000,,2013-02-25 21:11:00,
2013-02-25 21:21:00,61.0,59.0,-100.00,NNE,31,0.0,0.0,93,0.00,,,0.00,0.000000,,2013-02-25 21:21:00,
2013-02-25 21:31:00,61.0,59.0,-100.00,NNE,31,0.0,0.0,93,0.00,,,0.00,0.000000,,2013-02-25 21:31:00,
2013-02-25 22:01:00,61.0,59.0,-100.00,NNE,28,0.0,0.0,92,0.00,,,0.00,0.000000,,2013-02-25 22:01:00,
2013-02-25 22:11:00,61.0,59.0,-100.00,NNE,28,0.0,0.0,92,0.00,,,0.00,0.000000,,2013-02-25 22:11:00,
2013-02-25 22:21:00,61.0,59.0,-100.00,NNE,28,0.0,0.0,92,0.00,,,0.00,0.000000,,2013-02-25 22:21:00,
2013-02-25 22:31:00,61.0,59.0,-100.00,NNE,28,0.0,0.0,92,0.00,,,0.00,0.000000,,2013-02-25 22:31:00,
2013-02-25 22:52:00,61.0,58.0,-100.00,NNE,29,0.0,0.0,90,0.00,,,0.00,0.000000,,2013-02-25 22:52:00,
2013-02-25 23:01:00,61.0,58.0,-100.00,NNE,29,0.0,0.0,90,0.00,,,0.00,0.000000,,2013-02-25 23:01:00,
2013-02-25 23:11:00,61.0,58.0,-100.00,NNE,29,0.0,0.0,90,0.00,,,0.00,0.000000,,2013-02-25 23:11:00,
2013-02-25 23:22:00,61.0,58.0,-100.00,NNE,29,0.0,0.0,90,0.00,,,0.00,0.000000,,2013-02-25 23:22:00,
2013-02-25 23:31:00,61.0,58.0,-100.00,NNE,29,0.0,0.0,90,0.00,,,0.00,0.000000,,2013-02-25 23:31:00,